Погода в Бхаратпуре

Индия     27°12′39″N   77°28′53″E
темп.,
°C
ветер,
м/с
пор.,
м/с
влажн.,
%
обл.,
%
осадки,
мм/ч
давл.,
гПа
погр.,
м
16 июня, ср
ср1623:30+32вюв584638 0.5 995403
02:30+31юв5115398 0.1 994506
05:30+31в455628 0.3 996639
08:30+33в65500 0.0 997835
11:30+38с323589 0.0 9972241
14:30+38ссз643386 0.3 9952362
17:30+29вюв7867100 1.1 996407
20:30+31вюв46513 0.3 997354
17 июня, чт
чт1723:30+30юв37562 0.8 1000488
02:30+29юв35665 0.0 999400
05:30+29вюв226895 0.0 999170
08:30+31юв22570 0.0 1001950
11:30+37в22380 0.0 10001955
14:30+40ссв332442 0.0 9973956
17:30+40всв332495 0.0 9962417
20:30+35в784229 0.0 998701
18 июня, пт
пт1823:30+33юв464764 0.0 1000658
02:30+32вюв35503 0.0 999477
05:30+31св23575 0.0 999156
08:30+34св33475 0.0 1001962
11:30+38св33315 0.0 9992422
14:30+39всв2328100 0.1 9972685
17:30+34юв244493 0.4 998466
20:30+33вюв354742 0.8 999313
19 июня, сб
сб1923:30+32в685156 1.3 1000512
02:30+30всв346299 1.4 999306
05:30+30вюв2262100 1.6 999295
08:30+32всв115757 0.0 1001737
11:30+37зсз243767 0.0 10001997
14:30+38з443444 0.0 9971731
17:30+31зсз10135697 1.1 998528
20:30+33ююв574881 1.1 998443
20 июня, вс
вс2023:30+31ю5659100 1.7 1000594
02:30+30в336171 0.6 999289
05:30+29вюв587199 1.5 999370
08:30+30юв346386 0.1 1001536
11:30+35ю324544 0.1 10011527
14:30+38юз2336100 0.3 9982576
17:30+33ююв565213 0.9 997291
20:30+32ююв595498 0.1 999526